User: anonymous   Login
Location: Butler
(32.5575°N, 84.2380°W)
Time: 20:39:31
(UTC+00:00)
Language:

N. Korean satellite - Orbit

View from above orbital plane
View from above orbital plane
View from above satellite
View from above satellite

Ground track
Ground track

The orbit data is extracted from the following two-line orbital elements,

1 39026U 12072A   22027.52562653  .00007380  00000-0  23483-3 0  9990
2 39026  97.2606  20.4180 0031875 306.7895  53.0423 15.32379937507311
Epoch (UTC): 27 January 2022 12:36:54
Eccentricity: 0.0031875
inclination: 97.2606°
perigee height: 447 km
apogee height: 490 km
right ascension of ascending node: 20.4180°
argument of perigee: 306.7895°
revolutions per day: 15.32379937
mean anomaly at epoch: 53.0423°
orbit number at epoch: 50731

The dashed part of the orbit path shows where the satellite is in the earth's shadow,  

DLR